Location: Noordwijk
(52.2400°N, 4.4500°E)
Time: 02:12:06
(UTC+00:00)

ITAMSAT 1 - Visible Passes

Search period start: 10 December 2022 00:00
Search period end: 20 December 2022 00:00
Orbit: 784 x 795 km, 98.9° (Epoch: 09 December)

Date Brightness Start Highest point End Pass type
(mag) Time Alt. Az. Time Alt. Az. Time Alt. Az.
10 Dec 8.9 17:40:59 24° NNE 17:40:59 24° NNE 17:43:59 10° N visible
10 Dec 9.4 19:21:42 26° NNW 19:21:42 26° NNW 19:23:57 10° NNW visible
11 Dec 9.1 17:11:02 17° NE 17:11:02 17° NE 17:13:48 10° N visible
11 Dec 9.0 18:51:45 30° NNW 18:51:45 30° NNW 18:54:23 10° NNW visible
11 Dec 10.6 20:32:29 11° NW 20:32:29 11° NW 20:32:46 10° NW visible
12 Dec 10.4 06:51:40 10° NE 06:55:17 19° E 06:58:52 10° SE visible
12 Dec 9.4 16:41:06 12° NE 16:41:16 12° NE 16:43:03 10° NNE visible
12 Dec 8.7 18:21:48 31° N 18:21:48 31° N 18:24:39 10° N visible
12 Dec 10.1 20:02:32 17° NW 20:02:32 17° NW 20:03:53 10° NNW visible
13 Dec 10.9 06:24:15 10° ENE 06:25:12 10° E 06:26:08 10° E visible
13 Dec 8.8 17:51:51 26° NNE 17:51:51 26° NNE 17:54:47 10° N visible
13 Dec 9.6 19:32:34 23° NW 19:32:34 23° NW 19:34:35 10° NNW visible
14 Dec 9.0 17:21:53 20° NE 17:21:53 20° NE 17:24:43 10° N visible
14 Dec 9.1 19:02:36 29° NNW 19:02:36 29° NNW 19:05:04 10° NNW visible
15 Dec 10.3 07:02:03 10° NE 07:06:05 22° E 07:10:05 10° SE visible
15 Dec 9.3 16:51:55 14° NE 16:51:55 14° NE 16:54:15 10° NNE visible
15 Dec 8.8 18:32:38 31° N 18:32:38 31° N 18:35:24 10° N visible
15 Dec 10.3 20:13:21 14° NW 20:13:21 14° NW 20:14:23 10° NW visible
16 Dec 10.6 06:33:43 10° ENE 06:36:04 13° E 06:38:24 10° ESE visible
16 Dec 8.8 18:02:40 28° NNE 18:02:40 28° NNE 18:05:34 10° N visible
16 Dec 9.8 19:43:23 21° NW 19:43:23 21° NW 19:45:11 10° NNW visible
17 Dec 8.9 17:32:41 22° NE 17:32:41 22° NE 17:35:34 10° N visible
17 Dec 9.3 19:13:24 27° NNW 19:13:24 27° NNW 19:15:44 10° NNW visible
18 Dec 9.2 17:02:42 16° NE 17:02:42 16° NE 17:05:18 10° NNE visible
18 Dec 8.9 18:43:25 31° N 18:43:25 31° N 18:46:07 10° NNW visible
18 Dec 10.4 20:24:08 13° NW 20:24:08 13° NW 20:24:48 10° NW visible
19 Dec 10.5 06:43:47 10° NE 06:46:54 16° E 06:49:58 10° ESE visible
19 Dec 9.5 16:32:42 10° NE 16:33:12 10° NE 16:33:47 10° NE visible
19 Dec 8.7 18:13:26 30° NNE 18:13:26 30° NNE 18:16:20 10° N visible
19 Dec 10.0 19:54:09 19° NW 19:54:09 19° NW 19:55:45 10° NNW visible
